This demonstration page uses our WeatherBlox Daily Observations layout. Learn more.

Left ArrowRight Arrow

Hourly Observations for September 4, 2017

Temp ( °F °C ) Dew Point ( °F °C ) Humidity (%) Winds ( mph kmh ) Pressure ( in mb ) Visibility ( mi km ) Precip ( " mm )
12:10 am 00:10 Clear 57 14 55 13 94 94 S 3 6 30.03 1017 10 16.0934 N/A
12:29 am 00:29 Clear 57 14 55 13 94 94 S 3 6 30.03 1017 10 16.0934 N/A
12:50 am 00:50 Clear 57 14 54 12 88 88 SSE 5 7 30.03 1017 10 16.0934 N/A
1:09 am 01:09 Clear 55 13 54 12 94 94 SSE 5 7 30.03 1017 10 16.0934 N/A
1:30 am 01:30 Clear 55 13 52 11 88 88 Calm 30 1016 10 16.0934 N/A
1:50 am 01:50 Clear 54 12 52 11 94 94 Calm 30 1016 10 16.0934 N/A
2:09 am 02:09 Clear 54 12 52 11 94 94 SSE 3 6 30 1016 10 16.0934 N/A
2:30 am 02:30 Clear 55 13 54 12 94 94 S 6 9 30 1016 10 16.0934 N/A
2:50 am 02:50 Clear 59 15 55 13 88 88 S 6 9 30 1016 10 16.0934 N/A
3:09 am 03:09 Clear 59 15 55 13 88 88 S 6 9 30 1016 10 16.0934 N/A
3:30 am 03:30 Clear 59 15 55 13 88 88 S 6 9 30 1016 10 16.0934 N/A
3:50 am 03:50 Clear 57 14 55 13 94 94 S 5 7 30 1016 10 16.0934 N/A
4:09 am 04:09 Clear 57 14 55 13 94 94 S 6 9 29.97 1015 10 16.0934 N/A
4:30 am 04:30 Clear 57 14 55 13 94 94 S 6 9 29.97 1015 7 11.26538 N/A
4:49 am 04:49 Clear 57 14 57 14 100 100 S 6 9 29.97 1015 7 11.26538 N/A
5:10 am 05:10 Clear 57 14 57 14 100 100 S 5 7 29.97 1015 5 8.0467 N/A
5:29 am 05:29 Clear 59 15 57 14 94 94 Calm 29.97 1015 5 8.0467 N/A
5:49 am 05:49 Clear 57 14 57 14 100 100 S 3 6 29.97 1015 4 6.43736 N/A
6:10 am 06:10 Mostly Cloudy 57 14 55 13 94 94 Calm 29.97 1015 1 1.60934 N/A
6:29 am 06:29 Mostly Cloudy 57 14 57 14 100 100 S 6 9 29.97 1015 0.75 1.207005 N/A
6:49 am 06:49 Clear 57 14 57 14 100 100 S 6 9 29.97 1015 4 6.43736 N/A
7:10 am 07:10 Clear 57 14 57 14 100 100 S 6 9 29.97 1015 5 8.0467 N/A
7:29 am 07:29 Sunny 57 14 57 14 100 100 S 6 9 29.97 1015 4 6.43736 N/A
7:50 am 07:50 Sunny 59 15 57 14 94 94 S 7 11 29.97 1015 2 3.21868 N/A
8:09 am 08:09 Sunny 59 15 57 14 94 94 S 7 11 29.97 1015 2 3.21868 N/A
8:29 am 08:29 Sunny 59 15 59 15 100 100 S 7 11 29.94 1014 4 6.43736 N/A
8:50 am 08:50 Sunny 61 16 59 15 94 94 S 7 11 29.94 1014 5 8.0467 N/A
9:09 am 09:09 Sunny 61 16 61 16 100 100 S 7 11 29.94 1014 7 11.26538 N/A
9:29 am 09:29 Sunny 63 17 61 16 94 94 S 7 11 29.94 1014 7 11.26538 N/A
9:50 am 09:50 Sunny 64 18 63 17 94 94 SSW 7 11 29.94 1014 10 16.0934 N/A
10:09 am 10:09 Sunny 66 19 63 17 88 88 SSW 7 11 29.94 1014 10 16.0934 N/A
10:30 am 10:30 Sunny 68 20 64 18 88 88 SSW 8 13 29.94 1014 10 16.0934 N/A
10:50 am 10:50 Sunny 70 21 64 18 83 83 SSW 9 15 29.88 1012 10 16.0934 N/A
11:09 am 11:09 Sunny 73 23 66 19 78 78 SSW 7 11 29.88 1012 10 16.0934 N/A
11:30 am 11:30 Sunny 75 24 68 20 78 78 SSW 10 17 29.88 1012 10 16.0934 N/A
11:50 am 11:50 Sunny 77 25 68 20 74 74 SW 13 20 29.88 1012 10 16.0934 N/A
12:09 pm 12:09 Sunny 79 26 68 20 70 70 SW 12 19 29.88 1012 10 16.0934 N/A
12:30 pm 12:30 Sunny 79 26 68 20 70 70 SW 12 19 29.88 1012 10 16.0934 N/A
12:50 pm 12:50 Sunny 81 27 68 20 66 66 SW 15 24 29.85 1011 10 16.0934 N/A
1:09 pm 13:09 Sunny 81 27 68 20 66 66 SW 17 28 29.85 1011 10 16.0934 N/A
1:30 pm 13:30 Sunny 82 28 68 20 62 62 SW 17 28 29.85 1011 10 16.0934 N/A
1:49 pm 13:49 Sunny 82 28 68 20 62 62 SW 17 28 29.83 1010 10 16.0934 N/A
2:09 pm 14:09 Sunny 84 29 68 20 58 58 WSW 18 30 29.83 1010 10 16.0934 N/A
2:30 pm 14:30 Sunny 84 29 66 19 55 55 WSW 17 28 29.83 1010 10 16.0934 N/A
2:49 pm 14:49 Sunny 84 29 66 19 55 55 SW 18 30 29.83 1010 10 16.0934 N/A
3:10 pm 15:10 Sunny 84 29 64 18 51 51 WSW 13 20 29.77 1008 10 16.0934 N/A
3:29 pm 15:29 Sunny 86 30 64 18 49 49 SW 13 20 29.77 1008 10 16.0934 N/A
3:50 pm 15:50 Sunny 86 30 66 19 52 52 SW 17 28 29.77 1008 10 16.0934 N/A
4:10 pm 16:10 Sunny 86 30 66 19 52 52 SW 16 26 29.77 1008 10 16.0934 N/A
4:29 pm 16:29 Sunny 84 29 66 19 55 55 WSW 20 31 29.74 1007 10 16.0934 N/A
4:50 pm 16:50 Partly Cloudy 86 30 66 19 52 52 SW 21 33 29.74 1007 10 16.0934 N/A
5:10 pm 17:10 Partly Cloudy 86 30 66 19 52 52 SW 21 33 29.74 1007 10 16.0934 N/A
5:29 pm 17:29 Partly Cloudy 86 30 66 19 52 52 WSW 15 24 29.74 1007 10 16.0934 N/A
5:50 pm 17:50 Sunny 84 29 66 19 55 55 SW 17 28 29.74 1007 10 16.0934 N/A
6:10 pm 18:10 Partly Cloudy 84 29 66 19 55 55 WSW 12 19 29.74 1007 10 16.0934 N/A
6:29 pm 18:29 Partly Cloudy 84 29 66 19 55 55 SW 12 19 29.71 1006 10 16.0934 N/A
6:50 pm 18:50 Partly Cloudy 84 29 66 19 55 55 SW 15 24 29.71 1006 10 16.0934 N/A
7:09 pm 19:09 Sunny 84 29 66 19 55 55 SW 17 28 29.68 1005 10 16.0934 N/A
7:29 pm 19:29 Sunny 82 28 66 19 58 58 SW 10 17 29.74 1007 10 16.0934 N/A
7:50 pm 19:50 Sunny 82 28 66 19 58 58 SW 13 20 29.74 1007 10 16.0934 N/A
8:09 pm 20:09 Sunny 82 28 66 19 58 58 SW 15 24 29.74 1007 10 16.0934 N/A
8:29 pm 20:29 Clear 81 27 68 20 66 66 SSW 7 11 29.74 1007 10 16.0934 N/A
8:50 pm 20:50 Clear 79 26 68 20 70 70 SSW 10 17 29.74 1007 10 16.0934 N/A
9:09 pm 21:09 Partly Cloudy 79 26 68 20 70 70 SSW 15 24 29.71 1006 10 16.0934 N/A
9:29 pm 21:29 Mostly Cloudy 79 26 68 20 70 70 SSW 13 20 29.71 1006 10 16.0934 N/A
9:50 pm 21:50 Cloudy 79 26 70 21 74 74 W 10 17 29.74 1007 10 16.0934 N/A
10:09 pm 22:09 Cloudy 79 26 70 21 74 74 W 7 11 29.74 1007 10 16.0934 N/A
10:29 pm 22:29 Cloudy 75 24 68 20 78 78 NW 6 9 29.74 1007 10 16.0934 N/A
10:50 pm 22:50 Cloudy 77 25 68 20 74 74 NNW 12 19 29.77 1008 10 16.0934 N/A
11:09 pm 23:09 Cloudy 73 23 68 20 83 83 NW 12 19 29.74 1007 10 16.0934 N/A
11:29 pm 23:29 Cloudy 73 23 68 20 83 83 NW 13 20 29.77 1008 10 16.0934 N/A
11:50 pm 23:50 Cloudy 72 22 68 20 88 88 NNW 12 19 29.77 1008 10 16.0934 N/A

Powered by AerisWeather